sat.trackr.live / text

‹ back to catalog

STARLINK-33860

NORAD 64033 · 2025-102M

PAYLOAD ACTIVE UNKNOWN

§ Identity

Operator
Country
US
Launch date
2025-05-16
Launch site
AFWTR
Launch vehicle
Mass (kg)
RCS (m²)

Purposes: comms

External: N2YO · Heavens-Above · Gunter

§ Orbital elements

Epoch: 2026-09-20T22:52:22.668960Z

Period
94.09 min
Inclination
70.0022°
Eccentricity
0.0003600
Mean motion
15.30407937 rev/d
Perigee alt
472.1 km
Apogee alt
477.1 km
Semi-major
6,852.7 km
B*
6.7045e-4
RAAN
339.6163°
Arg perigee
268.7218°
Mean anomaly
91.3545°
Rev number
7,527

§ Raw data

STARLINK-338601 64033U 25102M   26263.95304015  .00019694  00000+0  67045-3 0  99952 64033  70.0022 339.6163 0003600 268.7218  91.3545 15.30407937 75270

JSON: /api/v1/satellites/64033 · /tle

For live sub-satellite position, see the globe view (requires WebGL).

§ Visibility from observer

Set your observer location to see the next 7 days of passes ≥ 10°. The values pass through the URL so the page stays shareable.

No JS? Fill the form by hand. The geolocation button needs JavaScript.